Regional Weather Roundup
Issued by NWS Newport/Morehead, NC

Current Version | Previous Version | Text Only | Print | Product List | Glossary Off
Versions: 1 2 3 4 5 6 7 8 9 10 11 12 13 14 15 16 17 18 19 20 21 22 23 24 25 26 27 28 29 30 31 32 33 34 35 36 37 38 39 40 41 42 43 44 45 46 47 48 49 50
000 ASUS42 KMHX 250213 RWRMHX WEATHER ROUNDUP FOR EASTERN NORTH CAROLINA NATIONAL WEATHER SERVICE NEWPORT/MOREHEAD CITY NC 1000 PM EDT SUN MAY 24 2015 NOTE: "FAIR" INDICATES FEW OR NO CLOUDS BELOW 12,000 FEET WITH NO SIGNIFICANT WEATHER AND/OR OBSTRUCTIONS TO VISIBILITY NCZ015>017-031-032-045>047-102-103-250300- NORTH COAST CITY SKY/WX TMP DP RH WIND PRES REMARKS EDENTON CLEAR 70 57 63 S7 30.35R ELIZABETH CITY CLEAR 68 56 65 S7 30.35R KITTY HAWK CLEAR 65 55 70 SE3 30.35R MANTEO CLEAR 66 56 69 S5 30.36R $$ NCZ045>047-081-094-103-104-250300- CENTRAL COAST CITY SKY/WX TMP DP RH WIND PRES REMARKS FRISCO CLEAR 64 55 72 E3 30.36S SWANQUARTER N/A 66 N/A N/A SE6 30.33S $$ NCZ095-097-098-100-101-250300- SOUTHERN COAST CITY SKY/WX TMP DP RH WIND PRES REMARKS BEAUFORT CLEAR 71 59 65 SE5 30.35R CEDAR ISLAND N/A 70 N/A N/A E6 30.39S JACKSONVILLE CLEAR 68 60 75 SE3 30.34R PINEY ISLAND CLEAR N/A N/A N/A SE6 30.36R WILMINGTON PTCLDY 68 60 75 CALM 30.34R $$ NCZ011>013-027>030-043-044-078>080-089-090>093-098-250300- COASTAL PLAIN CITY SKY/WX TMP DP RH WIND PRES REMARKS AHOSKIE CLEAR 66 56 71 S5 30.34R CLINTON CLEAR 69 59 69 CALM 30.35R ELIZABETHTOWN CLEAR 68 58 70 CALM 30.34R GOLDSBORO CLEAR 70 58 64 SE2 30.32R GREENVILLE CLEAR 72 57 60 S7 30.35R HAVELOCK CLEAR 65 59 81 CALM 30.36R KENANSVILLE CLEAR 66 57 72 CALM 30.36R KINSTON PTCLDY 70 57 64 S5 30.35R NEW BERN CLEAR 64 56 75 CALM 30.36R RICHLANDS PTCLDY 64 57 77 SE3 30.35R ROCKY MOUNT CLEAR 71 56 58 S5 30.33R WASHINGTON CLEAR 70 56 62 S5 30.35R WHITEVILLE PTCLDY 66 58 75 CALM 30.34R $$ AMZ130-135-150-152-154-156-158-170-250-252-270-ANZ085-086-088-633-658-670-250300- MARINE OBSERVATIONS STATION/POSITION TIME TEMP WIND PRES WAVE SWELL AIR SEA DIR/SP/G HT/PER HT/PER (UTC) (F) (DEG/KT/KT) (MB) (FT/S) (FT/S) CHESAPEAKE LIGHT 0100 65 170/ 18/ 19 1027.3 64 E VA BEACH 0150 64 62 160/ 8/ 10 1027.5 1/ 6 2/ 6 DUCK 0100 66 64 150/ 11/ 12 1026.5 2 E DUCK 0111 65 N/A 2/ 7 OREGON INLET 0100 66 73 130/ 5/ 5 1027.8 13E OREGON INLT 0200 66 N/A 2/ 6 HATTERAS CG 0100 71 75 80/ 4/ 6 1027.4 DIAMOND BUOY 0150 74 78 120/ 6/ 8 1028.1 2/ 7 2/ 7 CAPE LOOKOUT 0200 73 130/ 10/ 11 1027.6 BEAUFORT LAB 0100 73 76 150/ 7/ 9 1026.6 27 SE WRIGHTSVLE 0100 71 77 140/ 10/ 12 N/A 5 SE WRIGHTSVLE 0108 75 76 140/ 10/ 14 1027.0 225 S CAPE HAT 0150 72 74 90/ 14/ 17 1026.9 4/ 6 2/ 9 41 SE CHARLESTON 0150 75 75 110/ 14/ 17 1026.0 6/ 8 3/ 8 $$

USA.gov is the U.S. government's official web portal to all federal, state and local government web resources and services.